{"data":{"norad_id":65048,"intl_designator":"2025-162F","name":"HULIANWANG DIGUI-45","alt_names":[],"object_type":"PAYLOAD","status":"ACTIVE","operator":null,"country":"PRC","launch_date":"2025-07-30","launch_site_code":"WSC","launch_vehicle":null,"mission":null,"orbit_class":"UNKNOWN","rcs_meters":null,"size_class":null,"mass_kg":null,"dimensions":null,"purposes":[],"wikipedia_slug":null,"has_3d_model":false,"image_url":null,"decayed_at":null,"tle_current":{"epoch":"2026-09-21T17:31:01.933536Z","epoch_age_seconds":61986,"freshness":"FRESH","line1":"1 65048U 25162F   26264.72988349 -.00000080  00000+0  95792-4 0  9993","line2":"2 65048  50.0040 279.4519 0000763 287.2398  72.8391 13.29327059 56200","mean_motion":13.29327059,"eccentricity":7.63e-5,"inclination_deg":50.004,"raan_deg":279.4519,"arg_perigee_deg":287.2398,"mean_anomaly_deg":72.8391,"bstar":9.5792e-5,"rev_number":5620,"period_min":108.32548621129,"perigee_km":1148.7282304202,"apogee_km":1149.8769176992,"semimajor_km":7527.4395740597,"source":"CELESTRAK","updated_at":"2026-09-22T09:00:30.091204Z"}}}